This is the latest recevied weather packets stored in our database for station/object F4ELU-13. If no packets are shown the sender has not sent any weather packets the latest 10 day(s).
| Time | Temp. | Humidity | Pressure | Rain* | Wind** | Luminosity | Snow |
|---|---|---|---|---|---|---|---|
| 1777811763 | 15° C | 82% | 1015.2 hPa | 0.25 mm | - | - | - |
| 1777811223 | 14.44° C | 81% | 1015.4 hPa | 0 mm | - | - | - |
| 1777810683 | 15° C | 80% | 1015.3 hPa | 0 mm | - | - | - |
| 1777810143 | 15° C | 78% | 1015.4 hPa | 0 mm | - | - | - |
| 1777809603 | 15.56° C | 77% | 1015.4 hPa | 0 mm | - | - | - |
| 1777809243 | 15.56° C | 78% | 1015.3 hPa | 0 mm | - | - | - |
| 1777808703 | 15° C | 79% | 1015.1 hPa | 0 mm | - | - | - |
| 1777808163 | 15° C | 76% | 1015.2 hPa | 0 mm | - | - | - |
| 1777807623 | 15° C | 78% | 1015.4 hPa | 0 mm | - | - | - |
| 1777807083 | 15° C | 79% | 1015.2 hPa | 0 mm | - | - | - |
| 1777806543 | 15° C | 79% | 1015.5 hPa | 0 mm | - | - | - |
| 1777806003 | 15° C | 78% | 1015.5 hPa | 0 mm | - | - | - |
| 1777805643 | 15° C | 80% | 1015.5 hPa | 0 mm | - | - | - |
| 1777805103 | 15.56° C | 76% | 1015.6 hPa | 0 mm | - | - | - |
| 1777804563 | 15° C | 78% | 1015.5 hPa | 0 mm | - | - | - |
| 1777804023 | 15.56° C | 74% | 1015.4 hPa | 0 mm | - | - | - |
| 1777803483 | 15.56° C | 74% | 1015.4 hPa | 0 mm | - | - | - |
| 1777802943 | 15° C | 69% | 1015.4 hPa | 0 mm | - | - | - |
| 1777802403 | 15° C | 68% | 1015.4 hPa | 0 mm | - | - | - |
| 1777802043 | 15° C | 68% | 1015.4 hPa | 0 mm | - | - | - |
| 1777801503 | 15.56° C | 67% | 1015.3 hPa | 0 mm | - | - | - |
| 1777800963 | 15.56° C | 64% | 1015.3 hPa | 0 mm | - | - | - |
| 1777800423 | 16.11° C | 63% | 1015.2 hPa | 0 mm | - | - | - |
| 1777799883 | 16.11° C | 62% | 1015.2 hPa | 0 mm | - | - | - |
| 1777799343 | 16.67° C | 59% | 1015.1 hPa | 0 mm | - | - | - |
* Rain latest hour (hover to see other rain measurements)
** Current wind speed in m/s (hover to see current wind gust speed)